• Join FlightAware (Why Join?)
  • Login
  • US Flag GB Flag 
22:40 EDT


 

Airport Tracker/Info


-or-


 

Live Flight TrackerFlight Track Log ✈ ASQ4510 ✈ 19-Apr-2013 ✈ KDEN - KIAH

Flight Track Log - Related Links

Times and Time Zones

All times are in EDT time to prevent confusion due to time zone crossing. See the ASQ4510 flight status page for this flight to view local times or setup timezone preferences in your user account.

Time Position Orientation Groundspeed Altitude Reporting Facility
EDT Latitude Longitude Course Direction KTS MPH feet Rate Location/Type
00:07 39.9167 -104.6833 161° South 171 197 6,700  Level Denver TRACON
00:08 39.9333 -104.6167 72° East 253 291 8,400 1,680 Climbing Denver TRACON
00:09 39.9000 -104.5333 118° Southeast 297 342 9,900 1,140 Climbing Denver TRACON
00:10 39.8500 -104.4000 116° Southeast 366 421 10,700 1,080 Climbing Denver TRACON
00:11 39.8447 -104.3667 102° East 360 414 11,400 2,220 Climbing Denver Center
00:12 39.7667 -104.3036 148° Southeast 354 407 13,700 1,860 Climbing Denver Center
00:13 39.4202 -104.1855 161° South  Level Estimated
00:13 39.6806 -104.3536 204° Southwest 346 398 15,300  Level Denver Center
00:14 39.5886 -104.4094 205° Southwest 365 420 16,300 1,080 Climbing Denver Center
00:15 39.4819 -104.4728 205° Southwest 392 451 17,500 1,320 Climbing Denver Center
00:16 39.3803 -104.5336 205° Southwest 403 464 19,100 1,620 Climbing Denver Center
00:17 39.2750 -104.5694 195° South 401 461 20,900 1,740 Climbing Denver Center
00:18 39.1667 -104.5397 168° South 410 472 22,700 1,740 Climbing Denver Center
00:19 39.0803 -104.4425 139° Southeast 398 458 24,500 1,620 Climbing Denver Center
00:20 39.0000 -104.3533 139° Southeast 397 457 26,100 1,500 Climbing Denver Center
00:21 38.9128 -104.2517 138° Southeast 400 460 27,600 1,380 Climbing Denver Center
00:22 38.8272 -104.1572 139° Southeast 401 461 29,000 1,140 Climbing Denver Center
00:23 38.7433 -104.0625 139° Southeast 410 472 30,000 1,020 Climbing Denver Center
00:24 38.6436 -103.9519 139° Southeast 424 488 31,100 1,020 Climbing Denver Center
00:25 38.5567 -103.8553 139° Southeast 431 496 32,100 900 Climbing Denver Center
00:26 38.4686 -103.7569 139° Southeast 437 503 33,000 960 Climbing Denver Center
00:27 38.3642 -103.6425 139° Southeast 441 507 34,100 900 Climbing Denver Center
00:28 38.2889 -103.5594 139° Southeast 445 512 34,900 420 Climbing Denver Center
00:29 38.1817 -103.4414 139° Southeast 452 520 35,000  Climbing Denver Center
00:30 38.0686 -103.3178 139° Southeast 476 548 35,000  Level Denver Center
00:31 37.9697 -103.2094 139° Southeast 486 559 35,000  Level Denver Center
00:32 37.8689 -103.1019 140° Southeast 490 564 35,000  Level Denver Center
00:33 37.7531 -102.9750 139° Southeast 492 566 35,000  Level Denver Center
00:34 37.6503 -102.8669 140° Southeast 496 571 35,000  Level Denver Center
00:35 37.5494 -102.7572 139° Southeast 499 574 35,000  Level Denver Center
00:36 37.4308 -102.6303 140° Southeast 500 575 35,000  Level Denver Center
00:37 37.3278 -102.5208 140° Southeast 503 579 35,000  Level Denver Center
00:38 37.2258 -102.4136 140° Southeast 503 579 35,000  Level Albuquerque Center
00:39 37.1089 -102.2892 140° Southeast 505 581 35,000  Level Albuquerque Center
00:40 37.0061 -102.1833 141° Southeast 502 578 35,000  Level Albuquerque Center
00:41 36.9036 -102.0756 140° Southeast 504 580 35,000  Level Albuquerque Center
00:42 36.7844 -101.9514 140° Southeast 503 579 35,000  Level Albuquerque Center
00:43 36.6817 -101.8447 140° Southeast 503 579 35,000  Level Albuquerque Center
00:44 36.5686 -101.7256 140° Southeast 506 582 35,000  Level Albuquerque Center
00:45 36.4589 -101.6133 141° Southeast 509 586 35,000  Level Albuquerque Center
00:46 36.3531 -101.5058 141° Southeast 507 583 35,000  Level Albuquerque Center
00:47 36.2433 -101.3919 140° Southeast 502 578 35,000  Level Albuquerque Center
00:48 36.1361 -101.2839 141° Southeast 498 573 35,000  Level Albuquerque Center
00:49 36.0322 -101.1753 140° Southeast 496 571 35,000  Level Albuquerque Center
00:50 35.9219 -101.0650 141° Southeast 498 573 35,000  Level Albuquerque Center
00:51 35.8139 -100.9564 141° Southeast 499 574 35,000  Level Albuquerque Center
00:52 35.7053 -100.8475 141° Southeast 500 575 35,000  Level Albuquerque Center
00:53 35.5978 -100.7392 141° Southeast 499 574 35,000  Level Albuquerque Center
00:54 35.4936 -100.6347 141° Southeast 499 574 35,000  Level Albuquerque Center
00:55 35.3856 -100.5281 141° Southeast 499 574 35,000  Level Albuquerque Center
00:56 35.2786 -100.4222 141° Southeast 496 571 35,000  Level Albuquerque Center
00:57 35.1719 -100.3161 141° Southeast 495 570 35,000  Level Albuquerque Center
00:58 35.0631 -100.2097 141° Southeast 499 574 35,000  Level Albuquerque Center
00:59 34.9344 -100.0831 141° Southeast 497 572 35,000  Level Albuquerque Center
01:00 34.8267 -99.9772 141° Southeast 497 572 35,000  Level Albuquerque Center
01:01 34.7186 -99.8714 141° Southeast 498 573 35,000  Level Albuquerque Center
01:02 34.6942 -99.8506 145° Southeast 505 581 35,000  Level Fort Worth Center
01:03 34.5875 -99.7467 141° Southeast 505 581 35,000  Level Fort Worth Center
01:04 34.4811 -99.6406 141° Southeast 505 581 35,000  Level Fort Worth Center
01:05 34.3722 -99.5394 143° Southeast 505 581 35,000  Level Fort Worth Center
01:06 34.2633 -99.4414 143° Southeast 500 575 35,000  Level Fort Worth Center
01:07 34.1564 -99.3311 140° Southeast 500 575 35,000  Level Fort Worth Center
01:08 34.0494 -99.2308 142° Southeast 500 575 35,000  Level Fort Worth Center
01:09 33.9444 -99.1286 141° Southeast 495 570 35,000  Level Fort Worth Center
01:10 33.8372 -99.0264 142° Southeast 490 564 35,000  Level Fort Worth Center
01:11 33.7175 -98.9217 144° Southeast 490 564 35,000  Level Fort Worth Center
01:12 33.6122 -98.8203 141° Southeast 490 564 35,000  Level Fort Worth Center
01:13 33.5153 -98.7214 140° Southeast 495 570 35,000  Level Fort Worth Center
01:14 33.4078 -98.6153 141° Southeast 501 577 35,000  Level Fort Worth Center
01:15 33.3067 -98.5094 139° Southeast 501 577 35,000  Level Fort Worth Center
01:16 33.1864 -98.3964 142° Southeast 492 566 35,000  Level Fort Worth Center
01:17 33.0828 -98.2911 140° Southeast 492 566 35,000  Level Fort Worth Center
01:18 32.9792 -98.1886 140° Southeast 492 566 35,000  Level Fort Worth Center
01:19 32.8733 -98.0839 140° Southeast 492 566 35,000  Level Fort Worth Center
01:20 32.7714 -97.9842 141° Southeast 492 566 35,000  Level Fort Worth Center
01:21 32.6656 -97.8797 140° Southeast 492 566 35,000  Level Fort Worth Center
01:22 32.5739 -97.7906 141° Southeast 492 566 35,000  Level Fort Worth Center
01:23 32.4678 -97.6867 140° Southeast 492 566 35,000  Level Fort Worth Center
01:24 32.3614 -97.5831 141° Southeast 492 566 35,000  Level Fort Worth Center
01:25 32.2592 -97.4847 141° Southeast 492 566 35,000  Level Fort Worth Center
01:26 32.1550 -97.3814 140° Southeast 492 566 35,000  Level Fort Worth Center
01:27 32.0483 -97.2811 141° Southeast 492 566 35,000  Level Fort Worth Center
01:29 31.8064 -97.0433 140° Southeast 485 558 35,000  Level Houston Center
01:30 31.7178 -96.9578 141° Southeast 486 559 35,000  Level Houston Center
01:31 31.6117 -96.8583 141° Southeast 484 557 35,000 -180 Level Houston Center
01:32 31.5061 -96.7569 141° Southeast 484 557 34,700 -1,080 Descending Houston Center
01:33 31.4011 -96.6567 141° Southeast 483 556 32,900 -1,860 Descending Houston Center
01:34 31.2933 -96.5544 141° Southeast 489 563 31,000 -1,920 Descending Houston Center
01:35 31.1858 -96.4539 141° Southeast 489 563 29,100 -1,980 Descending Houston Center
01:36 31.0756 -96.3525 142° Southeast 494 568 27,100 -2,280 Descending Houston Center
01:36 31.0094 -96.3094 151° Southeast 486 559 25,700 -2,520 Descending Houston Center
01:37 30.9575 -96.2767 152° Southeast 480 552 24,600 -2,520 Descending Houston Center
01:38 30.8700 -96.2231 152° Southeast 462 532 22,700 -2,640 Descending Houston Center
01:38 30.8417 -96.2058 152° Southeast 466 536 22,000 -2,580 Descending Houston Center
01:39 30.7572 -96.1531 152° Southeast 441 507 20,100 -2,520 Descending Houston Center
01:39 30.7333 -96.1369 150° Southeast 445 512 19,500 -2,340 Descending Houston Center
01:40 30.6489 -96.0878 153° Southeast 437 503 17,800 -2,220 Descending Houston Center
01:40 30.6256 -96.0703 147° Southeast 437 503 17,300 -2,460 Descending Houston Center
01:41 30.5469 -96.0242 153° Southeast 412 474 15,300 -2,520 Descending Houston Center
01:41 30.5242 -96.0089 150° Southeast 419 482 14,800 -2,460 Descending Houston Center
01:42 30.4492 -95.9628 152° Southeast 404 465 12,800 -2,520 Descending Houston Center
01:42 30.4258 -95.9475 151° Southeast 404 465 12,300 -1,560 Descending Houston Center
01:43 30.3431 -95.9000 154° Southeast 345 397 11,100 -1,260 Descending Houston Center
01:44 30.2653 -95.8508 151° Southeast 304 350 10,000 -1,320 Descending Houston Center
01:45 30.2031 -95.8122 152° Southeast 278 320 8,600 -1,620 Descending Houston Center
01:46 30.1344 -95.7719 153° Southeast 270 311 6,900 -1,620 Descending Houston Center
01:47 30.0700 -95.7311 151° Southeast 264 304 5,400 -1,380 Descending Houston Center
01:48 30.0081 -95.6950 153° Southeast 248 285 4,200 -720 Descending Houston Center
01:49 29.9914 -95.6247 105° East 226 260 4,000 -300 Descending Houston Center
01:50 29.9933 -95.5544 88° East 210 242 3,600 -900 Descending Houston Center
01:51 29.9917 -95.4872 92° East 212 244 2,300 -1,080 Descending Houston Center
01:52 29.9933 -95.4361 88° East 138 159 1,500 -840 Descending Houston Center
01:53 29.9933 -95.3903 90° East 138 159 700 -540 Descending Houston Center
01:54 29.9931 -95.3442 90° East 145 167 400 -300 Descending Houston Center
01:56 29.9833 -95.3333 90° East  Level FlightAware Approximate